Temp
25 29 30 32 32 35 35 33 31 29 35 35 35 35 33 31 30 27 26 26 26 23 20 19 19 19 19 19 19 19 19 18 18 18 18 18 18 18 18 18 18 17 17 16 16 16 16 15 15
24 28 31 34 33 34 35 35 35 27 35 35 35 34 34 28 29 25 25 24 23 22 20 19 19 19 19 19 19 19 18 18 18 18 18 18 17 17 18 18 17 16 16 16 16 15 15 15 14
25 29 32 34 34 34 33 33 31 33 34 34 34 33 32 28 27 26 25 24 23 22 22 19 18 19 19 19 18 18 18 18 18 18 18 17 17 17 17 17 17 16 16 16 15 15 14 14 15
29 33 33 32 33 35 34 33 33 34 33 34 34 33 30 28 26 26 24 23 22 22 21 19 18 19 19 18 18 18 18 18 18 17 17 17 17 17 17 17 16 16 15 15 14 14 14 14 14
30 33 32 33 34 33 34 33 33 33 33 33 34 33 30 28 26 24 23 23 23 23 20 18 18 18 18 18 18 18 18 18 17 17 17 17 17 17 17 16 16 16 16 15 14 14 14 14 14
31 33 32 33 34 33 33 33 33 33 33 33 32 33 29 27 26 24 24 24 23 22 19 18 18 18 18 18 18 18 18 18 17 17 17 17 17 16 16 16 16 15 15 14 14 13 13 13 14
31 33 32 34 33 32 32 32 32 32 33 33 34 32 29 29 26 25 24 24 23 21 20 18 18 18 18 17 18 17 18 17 17 17 17 17 17 16 16 16 16 15 15 14 14 13 13 12 14
31 32 32 33 33 32 31 32 32 32 33 32 32 32 30 29 26 25 24 23 22 20 19 18 18 18 17 17 17 17 17 17 17 16 17 16 16 16 16 16 15 15 14 14 13 13 13 12 14
31 31 32 33 33 31 31 31 32 32 32 31 30 29 29 28 27 25 24 23 22 21 20 19 19 19 19 18 17 17 17 16 16 16 16 16 17 16 16 16 15 15 14 13 13 13 13 12 14
30 31 31 31 31 30 30 31 30 31 28 27 27 27 27 25 27 25 24 24 21 20 20 20 19 19 19 18 16 17 16 16 17 17 16 19 18 18 16 15 14 14 14 13 13 13 14 15 15
31 30 30 29 28 29 30 28 27 29 26 21 18 19 22 21 21 20 21 23 21 20 19 20 19 19 20 19 18 18 17 17 17 17 18 19 19 16 15 14 14 14 13 14 14 13 14 16 18
28 28 28 28 27 28 29 28 24 23 22 18 17 15 16 20 20 20 20 22 21 21 20 20 19 19 19 19 19 18 17 17 17 18 19 19 19 18 16 17 17 16 16 16 16 17 18 17 18
28 27 27 26 26 27 28 27 24 22 22 19 17 13 11 12 11 18 18 21 22 22 21 20 20 19 20 19 19 18 17 17 17 18 19 19 19 19 18 18 18 18 18 17 18 18 17 16 16
27 26 26 26 26 26 27 26 26 22 22 21 18 14 12 11 10 10 10 10 14 17 20 20 19 19 20 20 20 18 18 17 17 18 18 18 19 19 19 19 19 18 19 19 18 17 17 17 17
26 25 25 25 25 26 26 25 23 22 23 21 21 17 13 11 10 10 9 8 8 11 15 18 19 20 19 20 19 18 18 18 17 18 17 17 17 17 18 18 18 18 19 18 18 17 18 17 17
24 25 25 24 24 25 24 26 21 21 22 22 21 20 17 13 11 11 9 8 7 9 12 16 18 19 18 19 19 19 19 18 17 18 17 17 17 17 17 18 18 18 18 18 18 18 18 18 18
25 25 26 23 23 24 24 23 21 21 21 21 21 20 19 19 15 12 10 8 7 8 10 15 16 18 18 19 18 18 18 18 17 17 17 17 17 17 17 18 18 18 18 18 18 18 18 18 18
26 25 25 25 22 23 24 24 21 20 21 21 21 20 19 19 18 15 13 10 8 7 9 11 13 15 16 18 18 17 17 18 17 16 16 16 17 17 17 18 18 17 18 18 18 18 18 19 18
22 23 24 24 21 20 23 23 21 20 20 21 21 20 19 18 17 15 14 14 10 8 8 9 11 13 14 16 17 16 16 17 17 17 16 17 17 16 16 18 17 17 18 17 17 17 18 18 18
21 21 22 22 20 20 23 22 23 20 19 19 19 18 18 18 17 15 14 14 13 9 7 7 8 10 12 13 15 16 16 17 16 16 17 17 16 16 16 17 17 17 18 17 17 17 17 17 17
19 19 20 19 20 21 21 21 23 20 18 18 18 17 17 17 16 15 14 14 13 13 9 7 6 7 10 10 13 15 16 16 16 16 16 16 16 16 16 16 17 17 17 17 17 16 17 17 17
19 18 17 18 19 20 21 20 23 21 18 18 17 16 16 16 16 15 14 13 13 12 12 9 6 5 8 9 11 14 16 16 15 16 16 15 16 16 16 16 16 16 16 17 16 16 16 16 17
17 17 17 18 18 19 20 20 21 22 19 18 16 15 15 15 15 14 13 12 12 12 11 10 9 5 6 8 9 11 15 16 16 15 15 16 16 16 16 16 16 16 16 16 17 16 16 16 17
16 17 18 18 18 17 19 20 21 19 14 14 14 14 14 14 14 13 13 12 12 11 10 10 9 8 5 6 8 9 12 16 16 15 16 16 16 16 16 16 16 16 16 16 16 16 16 16 16
17 17 17 17 17 17 19 18 15 12 12 12 12 12 13 13 13 13 12 12 11 10 10 10 9 8 7 4 6 8 11 15 15 15 16 16 16 16 16 16 16 16 16 16 16 16 16 16 16
15 15 16 15 17 18 18 16 16 12 12 11 11 12 12 12 12 12 11 10 10 9 8 9 8 7 7 4 4 7 8 12 15 16 16 16 15 15 16 16 16 16 16 16 16 16 16 16 16
14 15 15 13 15 15 17 15 12 12 10 10 10 11 11 11 11 11 10 9 8 8 7 7 7 7 6 4 3 5 6 9 12 15 15 15 15 15 15 15 16 15 15 15 15 15 16 16 16
13 13 13 13 12 14 17 16 9 8 8 10 10 10 10 10 10 10 9 7 6 6 6 6 5 6 5 4 3 4 4 6 10 13 15 15 15 15 15 15 15 15 15 15 15 15 14 14 14
13 13 13 13 12 12 12 13 9 9 11 10 11 11 10 10 9 7 6 5 4 5 5 5 4 4 4 3 3 3 4 5 7 10 14 14 14 14 14 14 14 14 14 14 13 13 14 14 14
11 11 11 10 10 10 9 11 12 12 11 11 11 11 10 10 8 6 5 4 4 4 4 3 3 3 3 2 3 2 4 5 6 8 11 12 13 14 13 14 13 13 13 13 13 13 13 14 13
Height
777 775 772 764 775 751 746 752 751 758 732 728 733 740 750 759 772 800 786 790 792 801 807 811 816 819 823 826 828 831 831 834 837 838 840 841 842 845 845 847 847 850 850 853 853 853 855 858 859
776 775 769 757 771 757 744 739 738 758 715 729 737 743 748 779 771 785 790 793 797 804 810 813 816 821 825 828 830 834 834 837 839 841 842 843 845 847 848 850 851 852 854 855 858 857 858 860 862
776 773 767 757 757 752 754 746 756 742 739 736 743 747 754 776 779 783 789 796 801 804 810 815 818 822 827 830 832 835 836 839 842 843 844 846 847 850 851 853 854 856 857 858 860 861 861 861 864
774 764 759 765 755 736 740 752 750 745 748 743 746 755 767 775 782 785 792 799 801 807 810 816 821 823 827 831 835 837 838 841 844 846 847 848 850 852 854 855 858 859 860 863 863 864 864 864 866
772 759 764 758 748 743 744 749 750 754 748 750 749 754 768 778 782 788 795 800 804 810 814 817 821 826 830 832 835 838 841 844 846 848 850 851 853 854 857 858 860 863 863 865 867 867 867 867 868
769 755 766 758 745 741 747 753 753 755 755 752 758 756 771 779 785 791 796 802 807 811 817 821 826 829 832 835 837 840 843 846 848 849 851 854 856 857 860 861 862 865 866 867 869 871 871 871 871
770 757 762 746 745 755 756 755 758 758 755 755 750 762 772 778 786 792 797 804 809 814 819 824 829 833 836 838 840 844 845 848 851 852 853 855 859 861 863 864 865 868 869 870 871 873 875 874 873
765 759 760 745 746 757 761 758 759 758 755 755 759 765 771 776 787 794 800 805 811 817 823 826 829 834 837 841 843 846 849 851 853 854 856 858 861 864 866 866 868 869 872 872 872 875 877 876 877
763 771 763 752 751 762 762 763 760 756 756 760 769 774 774 780 787 794 801 806 813 819 823 827 830 833 838 842 845 848 850 853 856 856 858 859 863 866 869 868 869 872 873 875 875 875 877 879 879
768 764 762 753 756 763 768 765 767 761 767 781 783 783 782 788 788 794 800 805 812 817 822 825 829 833 836 841 845 848 851 855 857 858 859 860 863 866 870 871 872 873 875 877 877 876 878 879 882
761 768 762 769 771 772 768 780 781 771 781 804 811 804 794 798 799 803 806 806 811 816 821 825 828 832 836 841 845 847 851 854 856 858 859 861 864 867 870 873 876 875 877 879 881 879 881 881 882
775 774 771 774 778 777 775 775 794 795 802 812 814 813 804 803 804 806 807 808 811 814 818 822 827 831 834 839 843 845 849 852 855 857 859 862 864 866 868 872 875 876 877 879 881 880 880 882 883
774 776 780 781 783 782 779 781 796 804 802 812 815 815 817 815 813 810 810 809 811 815 818 822 826 829 833 836 840 843 846 850 853 856 859 861 863 865 866 870 872 874 876 878 878 880 882 883 884
777 779 784 783 784 786 783 788 789 806 804 807 813 820 824 824 821 818 815 816 812 815 819 822 824 828 832 834 837 841 845 848 852 855 858 861 862 864 865 869 871 873 875 876 877 880 882 883 884
782 789 787 789 785 785 786 794 803 807 804 807 809 818 825 827 826 824 824 822 818 816 818 820 820 824 827 831 834 839 843 847 850 854 857 860 861 864 866 869 871 872 874 877 877 880 881 883 885
787 787 787 791 789 786 792 786 806 808 805 808 810 812 819 826 828 827 827 825 823 818 817 817 810 819 823 827 830 836 840 844 848 852 855 858 861 862 865 867 870 872 873 876 877 879 880 881 884
781 782 777 793 794 791 791 795 806 809 808 809 809 814 815 817 825 829 829 828 825 821 817 814 814 817 817 821 826 830 836 842 845 850 852 856 859 862 865 865 869 871 873 875 876 879 879 880 882
774 778 779 781 797 797 788 787 807 811 809 810 809 813 818 819 823 828 829 828 825 822 819 815 814 810 800 817 823 829 834 838 842 847 851 854 858 861 862 863 867 870 872 873 875 877 878 879 881
793 791 787 784 801 809 793 790 801 813 811 810 811 815 818 821 824 827 828 827 826 824 820 818 815 813 814 817 822 823 827 835 840 843 848 852 855 857 860 862 865 869 871 872 875 876 877 879 879
803 800 795 797 807 812 791 796 790 810 815 818 818 819 822 823 826 828 828 828 827 827 824 821 820 818 817 818 818 821 824 829 834 839 844 847 851 853 857 860 861 864 867 870 873 875 876 878 879
811 812 809 815 806 803 800 798 789 805 818 820 821 824 825 826 828 829 830 829 829 828 826 823 822 820 819 819 818 818 822 827 830 834 839 843 849 851 853 856 858 860 862 864 869 871 874 875 877
817 822 824 819 813 803 794 801 773 790 812 817 823 827 829 830 830 831 832 830 829 829 828 826 823 821 819 816 817 816 816 821 822 828 831 833 843 847 850 852 855 857 858 860 864 868 870 872 873
823 828 824 818 814 808 795 799 785 776 801 811 825 831 832 833 834 833 833 833 830 829 828 827 825 820 817 816 815 814 811 814 818 824 827 833 835 838 843 846 850 853 855 857 859 863 866 868 870
832 823 814 810 810 813 793 788 778 790 823 827 833 836 837 836 835 836 834 833 832 830 828 825 823 821 817 815 813 810 810 808 809 818 823 826 830 832 836 840 843 848 851 852 854 858 860 864 865
828 819 813 808 804 801 789 796 812 830 835 838 840 840 839 838 836 836 835 833 832 831 828 825 823 819 817 813 810 806 804 804 805 809 817 822 824 827 828 833 837 840 845 848 849 852 854 856 859
839 834 822 820 796 785 793 802 800 834 838 842 843 842 839 837 838 837 836 834 833 831 829 825 823 819 816 814 809 806 801 803 802 805 812 817 819 821 822 825 831 834 838 842 845 848 849 851 852
842 833 838 839 820 817 796 808 826 832 844 843 844 842 839 840 840 837 835 835 834 831 829 826 823 819 816 813 809 806 801 798 798 805 807 812 812 815 816 820 824 828 832 833 838 841 843 845 846
852 849 842 838 832 809 786 787 835 851 851 842 839 839 840 841 840 837 836 836 835 832 829 825 823 819 816 812 809 806 804 800 799 800 802 806 806 811 811 814 819 823 826 829 831 833 836 837 839
846 842 845 841 837 826 816 807 845 843 836 837 835 836 837 838 839 842 842 839 836 831 827 823 821 817 814 811 808 805 804 802 799 799 799 801 803 804 804 813 817 818 820 820 823 829 832 830 832
859 855 853 856 844 842 846 825 833 832 834 835 834 833 835 836 838 842 842 839 834 830 825 822 819 815 812 810 806 804 801 799 798 796 795 796 800 799 805 805 813 818 816 816 820 819 822 828 828
Wind_Speed
15 14 12 12 8 8 10 7 8 17 11 13 8 6 14 16 4 5 12 13 25 24 24 22 20 19 25 22 21 22 22 20 21 22 21 19 19 18 16 15 16 14 19 18 21 23 21 20 20
15 15 14 9 10 13 3 9 4 18 16 9 10 3 5 7 10 13 14 21 25 25 22 22 24 20 22 22 22 21 21 21 22 21 18 17 19 18 16 15 18 19 20 21 19 21 21 20 19
15 14 10 12 14 15 7 12 13 7 7 7 3 2 7 5 6 17 17 26 25 25 23 22 25 23 22 22 22 22 22 22 22 19 17 19 20 18 17 17 19 18 19 20 19 19 19 19 18
9 12 9 10 18 1 9 5 4 10 5 4 4 10 9 7 13 9 28 26 26 23 24 25 25 25 25 24 23 22 22 22 21 19 18 18 19 18 17 19 18 18 19 18 18 17 17 18 16
13 8 12 15 20 15 8 8 4 1 5 5 3 6 8 8 11 26 27 26 24 23 21 26 26 25 25 26 25 22 22 22 20 18 17 19 18 18 16 17 17 16 16 15 15 15 15 16 19
10 10 14 16 19 14 9 3 1 3 1 2 3 5 10 12 20 28 26 23 23 23 22 21 23 25 25 24 23 22 22 21 19 19 19 21 17 17 18 17 15 15 14 16 13 15 15 15 18
14 11 16 19 3 8 11 3 1 3 5 5 1 4 8 14 23 26 26 23 22 21 23 23 22 21 22 22 22 22 21 20 18 19 22 21 16 14 15 14 14 13 13 14 15 14 13 12 17
8 10 18 14 11 10 7 2 1 6 4 7 6 7 10 17 23 25 25 24 23 23 22 23 22 20 18 19 20 20 19 18 18 20 21 20 15 15 13 12 12 13 11 12 14 13 11 13 16
9 10 13 17 9 12 5 4 1 2 6 7 10 13 5 16 24 25 24 24 23 22 22 22 22 21 19 18 19 19 18 17 18 19 21 19 13 14 10 14 14 13 13 13 13 15 13 14 18
10 10 8 13 11 8 3 3 4 7 14 15 15 13 9 9 15 21 22 24 23 23 23 23 23 24 22 20 20 17 17 16 15 16 17 14 13 13 13 12 12 14 14 12 13 12 16 16 11
6 12 7 8 9 7 1 11 13 11 13 12 14 22 12 12 7 11 14 20 23 24 24 24 25 23 22 21 20 18 18 18 16 16 13 12 14 17 14 11 12 12 13 11 12 13 10 9 8
8 2 5 6 3 3 4 11 13 16 12 10 13 14 18 7 10 12 19 21 23 25 25 25 25 24 24 23 21 19 18 18 18 17 13 13 13 14 15 12 12 11 12 11 10 7 7 7 5
11 6 1 3 4 4 3 1 12 13 10 11 13 20 17 15 21 2 4 18 22 22 23 24 24 24 24 23 22 22 20 20 16 17 14 13 12 14 13 13 14 11 13 11 10 7 8 8 7
3 3 3 0 4 1 8 3 9 11 6 10 13 15 14 16 19 17 21 16 7 5 17 26 25 25 24 23 22 20 19 17 19 15 15 14 11 12 12 12 13 13 11 11 10 9 8 8 8
5 10 6 1 2 3 6 10 6 5 4 8 12 12 13 14 16 18 17 18 18 12 9 17 26 25 26 24 24 21 19 18 17 15 15 14 13 13 12 13 12 12 12 11 11 10 9 7 8
11 11 12 7 3 7 6 6 7 4 3 7 9 9 12 10 16 15 16 17 18 15 15 12 21 27 27 25 23 20 20 19 17 16 15 16 14 13 14 13 13 14 14 13 12 12 10 9 8
11 13 17 9 2 4 10 8 5 3 3 5 8 9 9 10 14 16 14 15 18 19 18 8 12 25 29 26 24 21 19 19 18 16 14 16 15 15 15 13 13 15 14 14 12 11 10 10 8
10 11 5 8 8 6 8 5 5 1 2 3 6 8 9 10 13 15 15 14 18 21 20 16 11 10 10 23 23 22 22 21 18 17 15 15 16 16 16 14 14 15 15 14 13 11 10 10 9
6 6 7 4 6 8 9 10 8 0 2 3 5 7 9 10 13 16 17 16 18 22 23 22 19 11 8 14 23 24 24 21 16 15 16 17 17 17 17 15 16 17 16 15 13 11 11 12 9
4 5 7 3 2 8 11 11 11 8 3 4 6 8 10 11 12 15 17 18 18 17 22 22 22 18 12 7 7 24 25 26 24 21 16 18 20 20 19 18 19 20 18 16 14 13 12 13 12
1 8 6 10 10 15 14 16 14 12 5 4 6 8 10 12 13 13 17 18 18 19 18 23 20 21 16 12 11 19 24 20 24 27 20 17 25 23 22 22 20 21 21 19 18 17 16 14 14
8 4 7 10 10 10 5 12 12 19 12 6 6 9 11 13 13 14 17 19 19 19 18 18 21 18 19 14 12 11 27 20 26 27 30 31 27 26 24 22 22 22 23 20 20 18 17 17 14
7 9 11 13 13 13 19 11 14 16 13 7 8 10 11 13 14 14 17 18 18 19 19 19 18 20 19 19 13 14 27 31 24 28 28 30 27 30 28 27 25 23 23 22 20 20 20 18 18
9 12 14 14 12 13 20 17 15 3 7 6 9 11 12 13 14 17 18 18 18 19 19 20 20 19 21 20 19 14 21 31 26 23 25 27 28 30 31 27 27 25 25 23 23 22 21 21 19
10 9 7 8 9 12 4 6 12 8 7 7 9 11 12 13 14 15 19 20 20 20 21 20 21 22 20 23 20 17 14 20 24 25 26 29 28 26 28 30 27 27 26 25 25 26 25 24 24
9 8 6 7 8 9 8 7 8 7 6 7 10 12 13 14 14 15 20 22 22 21 21 20 21 22 21 21 21 17 15 10 29 25 26 30 29 31 29 30 28 27 26 26 25 24 24 26 26
5 3 8 8 16 10 11 5 9 6 7 8 10 12 13 14 16 17 21 22 24 23 21 21 21 21 21 20 19 18 16 11 8 25 27 28 30 31 31 29 28 30 29 28 28 27 28 26 26
5 6 4 5 6 14 13 11 6 6 7 9 11 13 13 16 17 17 21 25 25 24 22 21 19 20 20 20 19 16 17 13 9 13 22 30 27 26 21 19 22 25 27 27 27 28 32 32 31
3 2 4 6 9 10 13 4 3 3 9 12 14 14 14 15 14 14 20 24 24 23 21 20 19 19 19 17 17 17 16 11 7 9 18 18 14 12 22 17 18 19 19 22 18 20 30 28 28
5 5 6 4 5 7 8 12 3 7 11 13 15 13 13 13 12 13 19 21 22 21 20 20 18 18 17 16 15 15 14 12 9 5 11 15 19 19 20 17 21 18 17 21 25 24 21 23 26
Wind_Direction
310 302 277 268 246 234 236 155 128 286 125 77 103 32 64 36 40 95 133 134 135 141 147 142 142 155 161 160 151 144 137 136 139 136 126 120 113 111 115 115 111 107 108 108 105 104 104 104 99
309 297 258 269 251 241 225 130 210 22 78 96 92 177 144 79 63 130 129 140 138 142 144 145 144 154 160 160 154 147 140 142 141 136 130 121 112 113 113 114 115 105 111 108 105 105 105 104 100
298 275 271 235 239 261 87 86 48 26 65 111 118 11 27 73 95 139 143 145 142 142 145 154 147 151 156 158 153 149 145 146 142 136 126 117 115 116 117 115 115 113 107 107 107 109 109 107 117
277 229 244 259 250 242 77 104 75 145 91 36 51 107 99 51 137 133 145 147 142 147 148 157 153 154 158 156 154 152 150 148 142 133 129 125 124 123 118 121 121 116 111 110 111 111 115 112 123
247 265 252 224 246 107 55 51 62 326 137 169 215 116 80 88 122 139 146 149 145 148 147 150 156 159 160 159 158 156 154 150 143 135 132 128 126 130 128 128 123 125 123 123 110 112 122 128 129
258 244 250 242 231 107 107 129 147 193 194 275 267 296 86 123 135 146 147 147 148 144 146 148 157 159 161 162 160 160 157 153 147 140 138 136 134 135 137 130 131 129 130 127 124 119 123 117 132
252 250 251 259 153 123 119 319 317 308 263 214 158 305 98 144 146 149 147 148 147 144 149 151 154 157 162 164 160 162 159 154 150 141 142 141 139 139 133 127 126 134 131 131 125 125 126 117 134
285 280 263 264 284 105 106 183 42 261 75 45 5 14 129 133 152 151 149 149 148 149 154 154 156 157 156 162 163 163 159 156 154 146 146 143 137 139 137 133 136 131 137 135 133 129 137 124 131
255 255 251 237 219 105 123 193 41 323 246 94 52 18 33 140 155 154 154 152 152 155 156 159 159 160 161 161 162 166 161 159 153 145 148 138 132 142 142 143 144 148 143 142 136 140 147 136 131
245 242 359 24 47 72 144 347 349 259 76 30 356 9 85 130 166 155 169 162 157 156 163 164 165 166 164 164 166 161 160 159 157 151 153 147 146 150 140 137 145 137 136 139 148 143 136 125 138
233 268 81 63 45 328 232 102 26 333 78 28 356 319 113 138 138 144 176 168 166 164 166 173 172 168 169 168 170 166 170 167 164 161 164 148 146 140 141 141 141 136 137 137 140 141 159 179 156
244 321 310 83 58 253 256 74 57 48 51 31 21 25 27 125 160 178 176 180 174 174 176 175 176 172 174 171 178 172 173 176 168 170 174 165 167 165 155 164 169 157 172 157 167 175 161 159 161
237 125 67 158 192 324 154 2 96 48 46 59 54 46 31 23 24 17 235 195 183 184 180 181 180 180 180 176 181 177 175 176 173 178 181 177 176 176 164 179 171 183 176 179 178 165 163 163 164
119 170 173 242 116 84 238 101 199 45 36 70 57 56 40 33 26 24 23 359 355 264 181 186 185 187 188 184 181 180 177 177 182 180 186 185 187 184 183 179 185 187 188 183 178 170 169 168 170
160 173 177 339 267 162 296 178 87 30 61 67 75 73 64 42 34 29 19 9 358 339 283 227 191 193 192 191 184 182 185 184 179 185 187 191 187 185 186 188 196 192 192 183 176 174 176 173 183
209 232 222 114 238 145 221 171 97 38 44 72 67 62 82 67 52 30 21 12 3 356 346 284 222 197 194 193 187 191 187 186 186 189 187 196 193 190 191 190 198 194 191 188 185 185 183 182 190
208 245 211 143 65 306 228 124 100 83 82 73 75 64 48 62 59 42 22 19 7 5 1 335 253 219 198 192 192 188 186 187 187 191 190 196 199 196 198 191 197 191 194 193 191 196 198 189 194
299 207 220 256 89 294 242 194 123 66 78 70 55 57 52 38 35 33 30 21 13 7 3 0 345 288 231 202 196 193 191 192 185 190 199 198 202 202 198 196 198 191 201 198 200 203 206 211 207
340 295 281 78 45 304 240 270 149 134 220 86 48 36 36 31 23 20 19 17 13 7 6 2 352 345 329 233 202 192 185 193 197 199 202 208 205 200 203 201 197 198 204 202 202 206 210 217 208
319 291 241 324 252 289 264 242 189 179 116 61 33 30 20 19 13 10 8 10 7 13 3 360 352 342 325 323 221 191 187 207 205 199 206 205 212 205 202 207 199 200 204 203 204 209 211 217 210
103 329 4 303 324 268 259 257 239 152 170 139 57 27 17 10 6 4 359 0 1 2 1 354 350 343 326 310 310 206 207 206 203 206 205 217 220 208 207 209 206 202 206 203 206 207 213 213 214
296 52 296 283 284 282 158 280 283 155 185 163 55 18 8 1 360 359 357 353 352 355 351 349 345 341 335 315 289 278 198 199 204 212 217 211 216 217 216 211 213 209 205 206 203 213 214 226 215
16 321 292 285 276 278 264 242 260 158 186 122 31 5 357 350 353 352 350 348 344 345 345 341 340 341 336 324 303 330 199 200 201 203 206 208 210 211 214 209 210 214 209 211 208 211 213 224 234
301 283 262 248 257 257 253 250 245 136 41 27 5 351 349 346 342 345 339 340 340 338 339 337 335 336 333 329 312 298 324 205 199 205 213 209 209 210 214 214 208 211 215 210 212 213 216 222 233
320 295 275 220 216 247 85 284 71 90 52 14 345 335 335 335 337 336 336 337 335 334 331 332 331 328 330 329 325 310 316 225 217 205 215 213 210 218 210 210 213 210 214 217 215 217 217 217 225
302 321 308 298 301 324 132 248 141 106 51 4 340 331 325 334 333 329 330 331 328 327 324 326 325 322 324 326 323 315 304 305 224 234 223 223 216 216 211 210 216 218 217 218 222 226 222 223 226
14 282 5 294 264 259 257 114 141 116 9 345 339 331 330 332 330 322 324 326 324 321 320 319 316 316 315 319 321 314 311 320 280 227 225 227 224 219 220 218 225 227 225 224 222 220 225 233 231
306 342 266 216 273 268 271 297 80 1 330 332 329 330 335 327 322 320 329 326 320 316 314 310 312 308 310 312 315 315 312 311 281 247 230 228 230 222 200 207 233 243 240 236 232 225 233 230 238
256 294 295 300 294 290 291 295 172 317 332 328 330 325 321 320 329 331 324 318 315 312 311 311 310 305 304 305 308 306 307 300 282 256 224 225 198 201 215 238 232 215 244 235 250 256 259 244 252
284 308 290 286 299 297 294 290 316 322 351 327 315 325 322 324 329 322 320 315 314 314 312 308 304 301 299 300 302 301 308 308 289 253 214 215 218 209 226 228 249 254 254 235 244 236 258 256 254